Weather History for Lakeville, MN

Change the Weather History Date:

Saturday, June 22, 2013

  Actual Average Record
Temperature  
Mean Temperature 71 °F -  
Max Temperature 80 °F 79 °F 91 °F (1950)
Min Temperature 62 °F 58 °F 46 °F (1960)
Cooling Degree Days 6    
Growing Degree Days 21 (Base 50)    
Moisture  
Dew Point 66 °F    
Average Humidity 86    
Maximum Humidity 100    
Minimum Humidity 70    
Precipitation  
Precipitation 0.00 in - - ()
Sea Level Pressure  
Sea Level Pressure 29.92 in    
Wind  
Wind Speed 6 mph (ENE)    
Max Wind Speed 14 mph    
Max Gust Speed 24 mph    
Visibility 9 miles    
Events Rain , Thunderstorm    
Averages and records for this station are not official NWS values.
T = Trace of Precipitation, MM = Missing Value Source: NWS Daily Summary

Daily Weather History Graph

Daily Weather History Graph

Search for Another Location

Airport:

Trip Planner

Search our weather history database for the weather conditions in past years. The results will help you decide how hot, cold, wet, or windy it might be!

Date:

Astronomy

Jun. 22, 2013 Rise Set
Actual Time 5:27 AM CDT 9:02 PM CDT
Civil Twilight 4:50 AM CDT 9:39 PM CDT
Nautical Twilight 4:01 AM CDT 10:28 PM CDT
Astronomical Twilight 2:57 AM CDT 11:32 PM CDT
Moon 8:14 PM CDT (6/22) 4:43 AM CDT (6/22)
Length of Visible Light 16h 48m
Length of Day
15h 34m
Waxing Gibbous, 99% of the Moon is Illuminated
Jun 22
Waxing Gibbous
Jun 23
Full
Jun 29
Last Quarter
Jul 8
New
Jul 15
First Quarter

Hourly Weather History & Observations

Time (CDT) Temp. Heat Index Dew Point Humidity Pressure Visibility Wind Dir Wind Speed Gust Speed Precip Events Conditions
12:11 AM 66.2 °F - 60.8 °F 83% 29.95 in 10.0 mi West 13.8 mph - N/A   Clear
12:32 AM 66.2 °F - 60.8 °F 83% 29.94 in 10.0 mi WNW 13.8 mph 24.2 mph N/A   Scattered Clouds
12:51 AM 69.8 °F - 60.8 °F 73% 29.94 in 10.0 mi West 5.8 mph - N/A Thunderstorm Mostly Cloudy
1:11 AM 66.2 °F - 60.8 °F 83% 29.94 in 10.0 mi WNW 3.5 mph - N/A Rain , Thunderstorm Light Thunderstorms and Rain
1:31 AM 68.0 °F - 60.8 °F 78% 29.94 in 10.0 mi Calm Calm - N/A Rain , Thunderstorm Light Thunderstorms and Rain
1:51 AM 66.2 °F - 60.8 °F 83% 29.98 in 7.0 mi South 4.6 mph - N/A Rain , Thunderstorm Thunderstorms and Rain
2:11 AM 64.4 °F - 62.6 °F 94% 30.00 in 7.0 mi SW 6.9 mph - N/A Rain , Thunderstorm Thunderstorms and Rain
2:32 AM 64.4 °F - 62.6 °F 94% 29.97 in 7.0 mi SW 5.8 mph 10.4 mph N/A Rain , Thunderstorm Light Thunderstorms and Rain
2:51 AM 64.4 °F - 62.6 °F 94% 29.97 in 5.0 mi West 9.2 mph - N/A Rain , Thunderstorm Thunderstorms and Rain
3:11 AM 64.4 °F - 62.6 °F 94% 29.95 in 7.0 mi North 3.5 mph - N/A Rain , Thunderstorm Rain
3:32 AM 64.4 °F - 62.6 °F 94% 29.97 in 4.0 mi Calm Calm - N/A Rain , Thunderstorm Thunderstorms and Rain
3:51 AM 62.6 °F - 62.6 °F 100% 29.95 in 4.0 mi Calm Calm - N/A Rain , Thunderstorm Thunderstorms and Rain
4:11 AM 62.6 °F - 62.6 °F 100% 29.95 in 4.0 mi Calm Calm - N/A Rain , Thunderstorm Thunderstorms and Rain
4:32 AM 62.6 °F - 62.6 °F 100% 29.97 in 5.0 mi Calm Calm - N/A Rain , Thunderstorm Rain
4:51 AM 62.6 °F - 62.6 °F 100% 29.96 in 7.0 mi NW 3.5 mph - N/A Rain Light Rain
5:11 AM 64.4 °F - 62.6 °F 94% 29.95 in 7.0 mi NW 6.9 mph - N/A Rain Light Rain
5:32 AM 64.4 °F - 62.6 °F 94% 30.00 in 5.0 mi South 8.1 mph - N/A Rain Rain
5:51 AM 64.4 °F - 62.6 °F 94% 30.02 in 7.0 mi South 5.8 mph - N/A Rain Rain
6:11 AM 64.4 °F - 62.6 °F 94% 29.96 in 7.0 mi NE 5.8 mph - N/A Rain Light Rain
6:32 AM 62.6 °F - 62.6 °F 100% 29.92 in 4.0 mi ENE 10.4 mph - N/A   Light Drizzle
6:51 AM 62.6 °F - 62.6 °F 100% 29.90 in 4.0 mi NE 8.1 mph - N/A   Mostly Cloudy
7:12 AM 62.6 °F - 62.6 °F 100% 29.89 in 5.0 mi ENE 10.4 mph - N/A   Scattered Clouds
7:31 AM 62.6 °F - 62.6 °F 100% 29.87 in 5.0 mi East 11.5 mph - N/A   Scattered Clouds
7:51 AM 64.4 °F - 62.6 °F 94% 29.88 in 7.0 mi East 10.4 mph - N/A   Scattered Clouds
8:12 AM 64.4 °F - 64.4 °F 100% 29.90 in 10.0 mi ESE 5.8 mph - N/A   Scattered Clouds
8:31 AM 64.4 °F - 64.4 °F 100% 29.92 in 10.0 mi SE 4.6 mph - N/A   Scattered Clouds
8:51 AM 64.4 °F - 64.4 °F 100% 29.95 in 10.0 mi SE 5.8 mph - N/A   Mostly Cloudy
9:12 AM 66.2 °F - 64.4 °F 94% 29.95 in 10.0 mi SE 3.5 mph - N/A   Overcast
9:31 AM 66.2 °F - 64.4 °F 94% 29.95 in 10.0 mi SE 3.5 mph - N/A   Overcast
9:51 AM 66.2 °F - 64.4 °F 94% 29.95 in 10.0 mi Calm Calm - N/A   Overcast
10:12 AM 68.0 °F - 64.4 °F 88% 29.95 in 10.0 mi Calm Calm - N/A   Overcast
10:31 AM 69.8 °F - 66.2 °F 88% 29.95 in 10.0 mi Calm Calm - N/A   Overcast
10:51 AM 69.8 °F - 66.2 °F 88% 29.95 in 10.0 mi WNW 3.5 mph - N/A   Overcast
11:12 AM 69.8 °F - 66.2 °F 88% 29.95 in 10.0 mi Calm Calm - N/A   Overcast
11:31 AM 71.6 °F - 66.2 °F 83% 29.95 in 10.0 mi Calm Calm - N/A   Overcast
11:51 AM 71.6 °F - 66.2 °F 83% 29.94 in 10.0 mi Calm Calm - N/A   Overcast
12:12 PM 71.6 °F - 66.2 °F 83% 29.93 in 10.0 mi Calm Calm - N/A   Overcast
12:31 PM 71.6 °F - 66.2 °F 83% 29.92 in 10.0 mi Calm Calm - N/A   Scattered Clouds
12:51 PM 73.4 °F - 66.2 °F 78% 29.92 in 10.0 mi Calm Calm - N/A   Scattered Clouds
1:12 PM 75.2 °F - 68.0 °F 78% 29.91 in 10.0 mi East 4.6 mph - N/A   Clear
1:31 PM 75.2 °F - 68.0 °F 78% 29.92 in 10.0 mi East 3.5 mph - N/A   Clear
1:51 PM 77.0 °F - 68.0 °F 74% 29.92 in 10.0 mi Calm Calm - N/A   Scattered Clouds
2:12 PM 78.8 °F - 69.8 °F 74% 29.91 in 10.0 mi Calm Calm - N/A   Clear
2:31 PM 77.0 °F - 69.8 °F 78% 29.90 in 10.0 mi East 6.9 mph - N/A   Scattered Clouds
2:51 PM 78.8 °F - 69.8 °F 74% 29.90 in 10.0 mi ENE 4.6 mph - N/A   Scattered Clouds
3:12 PM 78.8 °F - 69.8 °F 74% 29.91 in 10.0 mi East 5.8 mph - N/A   Scattered Clouds
3:31 PM 80.6 °F 83.9 °F 69.8 °F 70% 29.91 in 10.0 mi ENE 4.6 mph - N/A   Scattered Clouds
3:51 PM 80.6 °F 83.9 °F 69.8 °F 70% 29.91 in 10.0 mi East 5.8 mph - N/A   Mostly Cloudy
4:12 PM 80.6 °F 83.9 °F 69.8 °F 70% 29.90 in 10.0 mi East 5.8 mph - N/A   Scattered Clouds
4:31 PM 80.6 °F 84.6 °F 71.6 °F 74% 29.90 in 10.0 mi NNE 9.2 mph - N/A   Clear
4:51 PM 78.8 °F - 69.8 °F 74% 29.89 in 10.0 mi NNE 6.9 mph - N/A   Mostly Cloudy
5:11 PM 77.0 °F - 69.8 °F 78% 29.88 in 10.0 mi NE 9.2 mph - N/A   Overcast
5:31 PM 77.0 °F - 69.8 °F 78% 29.89 in 10.0 mi ENE 9.2 mph - N/A   Overcast
5:52 PM 78.8 °F - 69.8 °F 74% 29.88 in 10.0 mi ENE 10.4 mph - N/A   Scattered Clouds
6:11 PM 78.8 °F - 69.8 °F 74% 29.88 in 10.0 mi ENE 11.5 mph - N/A   Mostly Cloudy
6:31 PM 78.8 °F - 69.8 °F 74% 29.88 in 10.0 mi NE 8.1 mph - N/A   Scattered Clouds
6:52 PM 78.8 °F - 69.8 °F 74% 29.87 in 10.0 mi ENE 13.8 mph - N/A   Clear
7:11 PM 77.0 °F - 69.8 °F 78% 29.87 in 10.0 mi ENE 9.2 mph - N/A   Clear
7:31 PM 75.2 °F - 69.8 °F 83% 29.86 in 10.0 mi ENE 11.5 mph - N/A   Clear
7:51 PM 75.2 °F - 69.8 °F 83% 29.86 in 10.0 mi ENE 9.2 mph - N/A   Clear
8:11 PM 75.2 °F - 69.8 °F 83% 29.85 in 10.0 mi ENE 6.9 mph - N/A   Clear
8:32 PM 73.4 °F - 69.8 °F 88% 29.86 in 10.0 mi ENE 6.9 mph - N/A   Clear
8:51 PM 73.4 °F - 69.8 °F 88% 29.85 in 10.0 mi ENE 5.8 mph - N/A Thunderstorm Clear
9:11 PM 73.4 °F - 68.0 °F 83% 29.85 in 10.0 mi ENE 6.9 mph - N/A   Clear
9:32 PM 71.6 °F - 68.0 °F 88% 29.85 in 10.0 mi NE 3.5 mph - N/A   Clear
9:51 PM 71.6 °F - 68.0 °F 88% 29.86 in 10.0 mi ENE 5.8 mph - N/A   Clear
10:11 PM 71.6 °F - 68.0 °F 88% 29.88 in 10.0 mi East 4.6 mph - N/A   Clear
10:32 PM 71.6 °F - 68.0 °F 88% 29.87 in 10.0 mi East 3.5 mph - N/A   Clear
10:51 PM 69.8 °F - 66.2 °F 88% 29.87 in 10.0 mi East 4.6 mph - N/A   Scattered Clouds
11:11 PM 69.8 °F - 66.2 °F 88% 29.84 in 10.0 mi East 3.5 mph - N/A   Scattered Clouds
11:32 PM 69.8 °F - 68.0 °F 94% 29.87 in 10.0 mi ESE 5.8 mph - N/A   Mostly Cloudy
11:51 PM 69.8 °F - 66.2 °F 88% 29.85 in 10.0 mi ESE 5.8 mph - N/A   Mostly Cloudy